Weather History for Bakersfield, CA

Change the Weather History Date:

Monday, August 4, 2014

  Actual Average Record
Temperature  
Mean Temperature 86 °F 84 °F  
Max Temperature 99 °F 98 °F 109 °F (1901)
Min Temperature 72 °F 71 °F 53 °F (1903)
Degree Days  
Heating Degree Days 0    
Month to date heating degree days 0  
Since 1 June heating degree days 0  
Since 1 July heating degree days 0  
Cooling Degree Days 21    
Month to date cooling degree days 93  
Year to date cooling degree days 1748  
Since 1 June cooling degree days 1296  
Growing Degree Days 36 (Base 50)    
Moisture  
Dew Point 44 °F    
Average Humidity 31    
Maximum Humidity 54    
Minimum Humidity 7    
Precipitation  
Precipitation T in 0.00 in 0.00 in (2014)
Month to date precipitation T 0.00  
Year to date precipitation 1.34 4.39  
Since 1 July precipitation T T  
Snow  
Snow 0.00 in - - ()
Month to date snowfall 0.0  
Since 1 June snowfall 0.0  
Since 1 July snowfall 0.0  
Snow Depth 0.00 in    
Sea Level Pressure  
Sea Level Pressure 29.87 in    
Wind  
Wind Speed 7 mph (NW)    
Max Wind Speed 18 mph    
Max Gust Speed 24 mph    
Visibility 10 miles    
Events      
T = Trace of Precipitation, MM = Missing Value Source: NWS Daily Summary

Daily Weather History Graph

Daily Weather History Graph

Search for Another Location

Airport:

Trip Planner

Search our weather history database for the weather conditions in past years. The results will help you decide how hot, cold, wet, or windy it might be!

Date:

Astronomy

Aug. 04, 2014 Rise Set
Actual Time 6:07 AM PDT 7:56 PM PDT
Civil Twilight 5:39 AM PDT 8:24 PM PDT
Nautical Twilight 5:05 AM PDT 8:58 PM PDT
Astronomical Twilight 4:29 AM PDT 9:33 PM PDT
Moon 2:14 PM PDT (8/4) 12:15 AM PDT (8/4)
Length of Visible Light 14h 45m
Length of Day
13h 49m
First Quarter, 58% of the Moon is Illuminated
Aug 4
First Quarter
Aug 10
Full
Aug 17
Last Quarter
Aug 25
New
Sep 2
First Quarter

Hourly Weather History & Observations

Time (PDT) Temp. Heat Index Dew Point Humidity Pressure Visibility Wind Dir Wind Speed Gust Speed Precip Events Conditions
12:54 AM 82.9 °F 82.0 °F 55.0 °F 38% 29.86 in 10.0 mi ESE 5.8 mph - N/A   Clear
1:54 AM 82.9 °F 82.0 °F 55.0 °F 38% 29.85 in 10.0 mi ESE 4.6 mph - 0.00 in   Partly Cloudy
2:54 AM 81.0 °F 80.8 °F 55.9 °F 42% 29.85 in 10.0 mi SSE 4.6 mph - N/A   Clear
3:54 AM 75.9 °F - 55.9 °F 50% 29.84 in 10.0 mi SSE 5.8 mph - N/A   Clear
4:54 AM 78.1 °F - 57.0 °F 48% 29.85 in 10.0 mi Calm Calm - N/A   Clear
5:54 AM 75.9 °F - 57.9 °F 54% 29.87 in 10.0 mi Calm Calm - N/A   Clear
6:54 AM 77.0 °F - 55.4 °F 47% 29.92 in 10.0 mi North 5.8 mph - N/A   Partly Cloudy
7:54 AM 80.1 °F - 41.0 °F 25% 29.91 in 10.0 mi NNW 9.2 mph - N/A   Mostly Cloudy
8:54 AM 82.9 °F - 51.1 °F 33% 29.92 in 10.0 mi NNW 4.6 mph - N/A   Clear
9:54 AM 87.1 °F - 33.1 °F 15% 29.91 in 10.0 mi WNW 4.6 mph - N/A   Clear
10:54 AM 89.1 °F - 32.0 °F 13% 29.91 in 10.0 mi WSW 5.8 mph - N/A   Clear
11:54 AM 91.9 °F - 32.0 °F 12% 29.90 in 10.0 mi Calm Calm - N/A   Clear
12:54 PM 93.9 °F - 33.1 °F 12% 29.87 in 10.0 mi West 8.1 mph - N/A   Unknown
1:54 PM 96.1 °F - 21.9 °F 7% 29.86 in 10.0 mi West 6.9 mph - N/A   Clear
2:54 PM 97.0 °F - 30.0 °F 9% 29.84 in 10.0 mi NW 8.1 mph 19.6 mph N/A   Clear
3:54 PM 97.0 °F - 32.0 °F 10% 29.83 in 10.0 mi NNW 15.0 mph 23.0 mph N/A   Clear
4:54 PM 97.0 °F - 33.1 °F 11% 29.82 in 10.0 mi NNW 8.1 mph 18.4 mph N/A   Clear
5:54 PM 98.1 °F - 35.1 °F 11% 29.82 in 10.0 mi NNW 13.8 mph - N/A   Clear
6:54 PM 95.0 °F - 39.0 °F 14% 29.83 in 10.0 mi North 13.8 mph - N/A   Clear
7:54 PM 91.9 °F - 41.0 °F 17% 29.84 in 10.0 mi North 9.2 mph - N/A   Clear
8:54 PM 88.0 °F - 42.1 °F 20% 29.86 in 10.0 mi West 11.5 mph - N/A   Clear
9:54 PM 82.0 °F 81.7 °F 57.0 °F 42% 29.89 in 10.0 mi NW 11.5 mph - N/A   Clear
10:54 PM 81.0 °F 81.3 °F 59.0 °F 47% 29.91 in 10.0 mi NNW 10.4 mph - N/A   Clear
11:54 PM 79.0 °F - 59.0 °F 50% 29.91 in 10.0 mi NNW 10.4 mph - N/A   Clear